Total_Precipitation_Accumulation
0.03 0.03 0.03 0.08 0.13 0.12 0.68 1.07 1.36 1.46 2.16 2.03 1.86 1.36 1.31 1.21 1.38 1.33 1.15 1.31 1.49 1.06 0.78 0.61 0.61 0.69 0.59 0.57 0.74 0.74 0.75 0.65
0.01 0.02 0.05 0.08 0.12 0.31 0.81 1.22 1.53 1.22 0.84 0.67 0.93 0.85 0.81 1.07 1.36 1.12 0.84 1.04 1.20 1.42 0.95 0.64 0.61 0.68 0.74 0.95 0.92 0.82 0.55 0.77
0.02 0.04 0.10 0.14 0.27 0.38 0.41 0.37 0.54 0.23 0.16 0.25 0.56 0.64 0.75 0.87 1.10 0.88 0.78 0.98 1.24 1.28 1.21 1.08 0.71 0.70 0.80 1.22 1.26 1.23 0.74 1.05
0.02 0.09 0.13 0.15 0.15 0.17 0.06 0.06 0.27 0.23 0.13 0.24 0.50 0.84 1.02 1.19 1.44 1.29 0.92 1.09 1.10 1.33 1.09 1.34 1.21 1.21 1.05 1.21 1.43 1.23 0.83 0.97
0.01 0.01 0.02 0.02 0.02 0.03 0.02 0.07 0.14 0.20 0.26 0.33 0.43 0.68 0.73 0.84 0.89 1.14 0.95 0.93 1.08 1.23 1.31 1.46 1.46 1.39 1.38 1.27 1.46 1.38 1.32 1.02
0.00 0.01 0.02 0.01 0.04 0.04 0.10 0.13 0.16 0.15 0.23 0.41 0.35 0.47 0.63 0.75 0.91 1.17 1.33 0.98 0.81 0.84 1.13 1.29 1.44 1.41 1.35 1.42 1.40 1.51 1.48 1.64
0.01 0.02 0.02 0.03 0.12 0.17 0.16 0.16 0.19 0.21 0.29 0.39 0.41 0.36 0.36 0.38 0.67 1.04 1.71 1.70 1.16 0.95 1.03 1.09 1.24 1.36 1.25 1.48 1.57 1.45 1.70 1.80
0.02 0.02 0.06 0.10 0.22 0.25 0.22 0.21 0.22 0.32 0.39 0.44 0.44 0.49 0.43 0.42 0.41 0.57 1.05 2.11 2.17 1.71 1.31 1.31 1.44 1.67 1.86 1.83 1.88 1.84 1.66 1.69
0.01 0.05 0.11 0.17 0.45 0.41 0.33 0.24 0.21 0.24 0.28 0.39 0.40 0.34 0.35 0.32 0.39 0.44 0.48 0.75 1.40 1.66 1.50 1.25 1.63 2.15 2.25 2.51 2.43 2.26 2.30 2.23
0.08 0.18 0.26 0.31 0.40 0.36 0.30 0.25 0.17 0.19 0.22 0.21 0.29 0.42 0.39 0.40 0.56 0.44 0.60 0.56 0.82 1.17 1.49 1.35 1.22 1.54 2.04 2.37 2.32 2.26 2.31 2.23
0.35 0.47 0.40 0.39 0.42 0.36 0.35 0.30 0.27 0.24 0.16 0.17 0.20 0.34 0.38 0.40 0.54 0.38 0.50 0.57 0.81 1.20 1.50 1.85 1.86 1.48 1.48 2.06 2.17 2.09 2.00 1.77
0.56 0.90 0.80 0.53 0.42 0.35 0.38 0.50 0.45 0.40 0.28 0.27 0.29 0.49 0.49 0.53 0.55 0.59 0.60 0.80 1.05 1.30 1.66 2.17 2.71 2.42 2.06 1.88 1.89 1.84 1.69 1.56
0.87 1.21 1.60 1.11 0.76 0.55 0.34 0.42 0.40 0.58 0.74 0.61 0.57 0.71 0.70 0.70 0.87 0.89 0.99 1.17 1.28 1.55 1.87 2.29 2.61 2.88 2.70 2.41 2.06 1.85 1.83 1.59
1.30 1.46 1.73 1.69 1.30 1.00 0.62 0.50 0.38 0.40 0.58 0.98 0.92 1.02 0.82 1.09 1.18 1.43 1.66 1.73 1.83 1.88 1.94 2.06 2.21 2.30 2.59 2.38 1.89 1.54 1.55 1.48
0.94 1.13 1.45 1.63 1.53 1.39 0.95 0.95 0.79 0.67 0.64 0.67 0.63 0.76 1.03 1.24 1.25 1.33 1.71 1.87 1.69 1.43 1.39 1.38 1.13 1.14 1.54 1.81 1.90 1.90 1.78 1.70
0.61 0.64 0.59 0.58 0.65 0.68 0.76 0.66 0.65 0.72 0.68 0.69 0.59 0.72 1.12 1.31 1.61 1.60 1.34 1.07 0.97 0.94 0.85 0.80 0.81 0.96 1.38 1.51 1.66 1.75 2.00 2.05
0.29 0.22 0.23 0.27 0.33 0.39 0.52 0.61 0.53 0.49 0.50 0.46 0.60 0.75 0.67 0.74 0.71 0.63 0.67 0.82 0.87 0.76 0.59 0.54 0.54 0.65 1.21 1.45 1.76 1.77 1.90 2.21
0.15 0.21 0.17 0.27 0.29 0.31 0.44 0.57 0.56 0.41 0.35 0.35 0.38 0.39 0.39 0.33 0.26 0.28 0.33 0.38 0.44 0.58 0.70 0.56 0.37 0.59 1.13 1.01 1.46 1.45 1.69 2.07
0.06 0.09 0.06 0.12 0.26 0.44 0.51 0.55 0.60 0.57 0.38 0.27 0.20 0.17 0.15 0.17 0.27 0.34 0.35 0.33 0.26 0.25 0.36 0.75 1.09 1.02 1.07 0.94 1.15 1.03 1.20 1.68